カタログに戻る

INTELSAT 33E DEB

運用中GEO
NORAD 61994·DEBRIS· XX

打ち上げ Aug 24, 2016 から Guiana Space Centre

Loading…

TLE

最新Source: Space-Track

元期: Sep 13, 2026, 11:00 UTC

1 61994U 16053L   26256.45886624 -.00000281  00000-0  00000+0 0  9999
2 61994   1.8077  83.8431 0024716 214.7382 145.9046  1.00513365  6984

AllMySatでINTELSAT 33E DEBをリアルタイム追跡

Download on the App Store